Weather History for Milwaukee Timmerman, WI

Change the Weather History Date:

Monday, February 13, 2012

  Actual Average Record
Temperature  
Mean Temperature 22 °F -  
Max Temperature 30 °F 32 °F 50 °F (1976)
Min Temperature 15 °F 16 °F -3 °F (1955)
Degree Days  
Heating Degree Days 42    
Moisture  
Dew Point 13 °F    
Average Humidity 64    
Maximum Humidity 93    
Minimum Humidity 37    
Precipitation  
Precipitation 0.00 in - - ()
Sea Level Pressure  
Sea Level Pressure 30.03 in    
Wind  
Wind Speed 8 mph (SW)    
Max Wind Speed 13 mph    
Max Gust Speed 16 mph    
Visibility 8 miles    
Events Snow    
Averages and records for this station are not official NWS values.
T = Trace of Precipitation, MM = Missing Value Source: NWS Daily Summary

Daily Weather History Graph

Daily Weather History Graph

Search for Another Location

Airport:

Trip Planner

Search our weather history database for the weather conditions in past years. The results will help you decide how hot, cold, wet, or windy it might be!

Date:

Astronomy

Feb. 13, 2012 Rise Set
Actual Time 6:53 AM CST 5:20 PM CST
Civil Twilight 6:23 AM CST 5:49 PM CST
Nautical Twilight 5:50 AM CST 6:22 PM CST
Astronomical Twilight 5:17 AM CST 6:55 PM CST
Moon No Moon Rise 9:39 AM CST (2/13)
Length of Visible Light 11h 25m
Length of Day
10h 26m
Waning Gibbous, 61% of the Moon is Illuminated
Feb 13
Waning Gibbous
Feb 14
Last Quarter
Feb 21
New
Feb 29
First Quarter
Mar 8
Full

Hourly Weather History & Observations

Time (CST) Temp. Windchill Dew Point Humidity Pressure Visibility Wind Dir Wind Speed Gust Speed Precip Events Conditions
12:15 AM 21.2 °F 12.6 °F 5.0 °F 50% 30.16 in 10.0 mi West 6.9 mph - N/A   Clear
12:35 AM 21.2 °F 10.9 °F 3.2 °F 46% 30.15 in 10.0 mi WSW 9.2 mph - N/A   Clear
12:55 AM 21.2 °F 12.6 °F 5.0 °F 50% 30.15 in 10.0 mi WSW 6.9 mph - N/A   Clear
1:15 AM 21.2 °F 10.9 °F 5.0 °F 50% 30.14 in 10.0 mi West 9.2 mph - N/A   Clear
1:35 AM 23.0 °F 13.1 °F 5.0 °F 46% 30.14 in 10.0 mi WSW 9.2 mph - N/A   Clear
1:55 AM 21.2 °F 10.9 °F 5.0 °F 50% 30.14 in 10.0 mi West 9.2 mph - N/A   Clear
2:15 AM 21.2 °F 11.7 °F 5.0 °F 50% 30.13 in 10.0 mi West 8.1 mph - N/A   Clear
2:35 AM 21.2 °F 11.7 °F 5.0 °F 50% 30.13 in 10.0 mi West 8.1 mph - N/A   Clear
2:55 AM 19.4 °F 8.6 °F 5.0 °F 54% 30.13 in 10.0 mi West 9.2 mph - N/A   Clear
3:15 AM 19.4 °F 8.6 °F 5.0 °F 54% 30.13 in 10.0 mi WSW 9.2 mph - N/A   Clear
3:35 AM 19.4 °F 10.4 °F 5.0 °F 54% 30.12 in 10.0 mi West 6.9 mph - N/A   Clear
3:55 AM 19.4 °F 11.5 °F 3.2 °F 49% 30.12 in 10.0 mi West 5.8 mph - N/A   Clear
4:15 AM 19.4 °F 9.5 °F 3.2 °F 49% 30.12 in 10.0 mi West 8.1 mph - N/A   Clear
4:35 AM 17.6 °F 6.4 °F 3.2 °F 53% 30.11 in 10.0 mi West 9.2 mph - N/A   Clear
4:55 AM 17.6 °F 10.7 °F 3.2 °F 53% 30.11 in 10.0 mi West 4.6 mph - N/A   Clear
5:15 AM 17.6 °F 10.7 °F 3.2 °F 53% 30.11 in 10.0 mi WSW 4.6 mph - N/A   Clear
5:35 AM 15.8 °F 8.6 °F 3.2 °F 58% 30.11 in 10.0 mi WSW 4.6 mph - N/A   Clear
5:55 AM 15.8 °F 7.2 °F 3.2 °F 58% 30.11 in 10.0 mi SW 5.8 mph - N/A   Clear
7:50 AM 19.4 °F 11.5 °F 3.2 °F 49% 30.10 in 10.0 mi SW 5.8 mph - N/A   Overcast
8:45 AM 21.2 °F 13.6 °F 3.2 °F 46% 30.11 in 10.0 mi SW 5.8 mph - N/A   Overcast
9:45 AM 24.8 °F 17.9 °F 3.2 °F 40% 30.09 in 10.0 mi SW 5.8 mph - N/A   Overcast
10:45 AM 26.6 °F 18.2 °F 3.2 °F 37% 30.07 in 10.0 mi SSW 8.1 mph - N/A   Overcast
11:45 AM 26.6 °F 17.5 °F 6.8 °F 43% 30.03 in 10.0 mi South 9.2 mph - N/A   Overcast
12:45 PM 28.4 °F 19.7 °F 8.6 °F 43% 30.00 in 10.0 mi South 9.2 mph - N/A   Overcast
1:45 PM 30.2 °F 20.8 °F 19.4 °F 64% 29.98 in 3.0 mi South 11.5 mph - N/A Snow Light Snow
1:58 PM 28.4 °F 19.7 °F 21.2 °F 74% 29.97 in 1.5 mi South 9.2 mph - N/A Snow Light Snow
2:50 PM 28.4 °F 22.2 °F 24.8 °F 86% 29.96 in 1.5 mi South 5.8 mph - N/A Snow Light Snow
3:45 PM 28.4 °F 19.7 °F 24.8 °F 86% 29.94 in 3.0 mi South 9.2 mph - N/A Snow Light Snow
4:45 PM 28.4 °F 20.4 °F 24.8 °F 86% 29.91 in 2.0 mi South 8.1 mph - N/A Snow Light Snow
5:50 PM 28.4 °F 23.3 °F 26.6 °F 93% 29.90 in 2.0 mi SSE 4.6 mph - N/A Snow Light Snow
6:50 PM 28.4 °F 22.2 °F 26.6 °F 93% 29.89 in 2.5 mi SSE 5.8 mph - N/A Snow Light Snow
7:45 PM 28.4 °F 23.3 °F 26.6 °F 93% 29.88 in 5.0 mi SSE 4.6 mph - N/A Snow Light Snow
8:15 PM 30.2 °F 24.3 °F 26.6 °F 86% 29.87 in 7.0 mi South 5.8 mph - N/A   Overcast
8:35 PM 30.2 °F 23.4 °F 26.6 °F 86% 29.87 in 7.0 mi South 6.9 mph - N/A   Overcast
8:45 PM 28.4 °F 22.2 °F 26.6 °F 93% 29.87 in 5.0 mi South 5.8 mph - N/A Snow Light Snow
8:55 PM 30.2 °F 21.9 °F 26.6 °F 86% 29.87 in 5.0 mi South 9.2 mph - N/A Snow Light Snow
9:15 PM 30.2 °F 22.6 °F 26.6 °F 86% 29.86 in 4.0 mi South 8.1 mph - N/A Snow Light Snow
9:35 PM 28.4 °F 18.0 °F 26.6 °F 93% 29.86 in 3.0 mi South 12.7 mph 16.1 mph N/A Snow Light Snow
10:35 PM 28.4 °F 20.4 °F 26.6 °F 93% 29.84 in 7.0 mi South 8.1 mph - N/A Snow Light Snow
11:55 PM 28.4 °F 19.7 °F 26.6 °F 93% 29.83 in 10.0 mi South 9.2 mph - N/A   Overcast